Home > Time Zones > World Clock > Weather > India > Betul > Past weeks

Flag for India Weather past 2 weeks in Betul, Madhya Pradesh, India

Now
79 °F

Passing clouds.


Feels Like: 82 °F
Forecast: 70 / 84 °F
Wind: No wind

Location: Nagpur Sonegaon

Current Time: Sep 1, 2015 at 11:59:11 PM

Latest Report: Sep 1, 2015 at 11:10 PM


Visibility: 2 mi

Pressure: 29.77 "Hg (27.60 "Hg at 663m altitude)

Humidity: 79%

Dew point: 72 °F

Location of BetulLocation

Historic Weather in Betul — Graph

°F

Betul temperature yesterday

Maximum temperature yesterday: 88 °F (at 11:40 AM)
Minimum temperature yesterday: 73 °F (at 4:10 PM)
Average temperature yesterday: 78 °F

Past Weeks' High & Low Weather Summary

 TemperatureHumidityPressure
High99 °F (Aug 23, 1:40 PM)100% (Aug 19, 8:40 PM)29.89 "Hg (Aug 19, 8:40 PM)
Low72 °F (Sep 1, 5:10 AM)49% (Aug 25, 4:40 PM)29.62 "Hg (Aug 26, 3:10 PM)
Average82 °F79%29.75 "Hg
* Reported Aug 17 10:40 PM — Sep 1 10:40 PM, Betul, Weather by CustomWeather, © 2015

Note: Actual official high and low records may vary slightly from our data, if they occured in-between our weather recording intervals... More about our weather records

Advertising

Betul weather history for previous 24 hours

 ConditionsComfort  
Time TempWeatherWind HumidityBarometerVisibility
10:40 PM
Tue, Sep 1
79 °FPassing clouds.1 mph79%29.77 "Hg2 mi
10:10 PM81 °FPassing clouds.3 mph74%29.77 "Hg2 mi
9:10 PM81 °FPassing clouds.No wind79%29.77 "Hg2 mi
8:40 PM81 °FPassing clouds.2 mph79%29.77 "Hg2 mi
8:10 PM81 °FPassing clouds.No wind79%29.74 "Hg3 mi
7:40 PM81 °FPassing clouds.No wind74%29.74 "Hg3 mi
7:10 PM82 °FPassing clouds.No wind70%29.71 "Hg3 mi
6:40 PM82 °FScattered clouds.No wind70%29.71 "Hg3 mi
5:40 PM86 °FScattered clouds.6 mph62%29.68 "Hg4 mi
5:10 PM86 °FScattered clouds.7 mph66%29.68 "Hg4 mi
4:40 PM88 °FPassing clouds.7 mph62%29.68 "Hg4 mi
4:10 PM90 °FScattered clouds.7 mph59%29.68 "Hg4 mi
3:40 PM90 °FScattered clouds.8 mph59%29.68 "Hg4 mi
3:10 PM90 °FScattered clouds.12 mph59%29.68 "Hg4 mi
2:40 PM90 °FScattered clouds.7 mph63%29.68 "Hg4 mi
1:40 PM90 °FScattered clouds.7 mph59%29.71 "Hg4 mi
1:10 PM90 °FBroken clouds.7 mph63%29.74 "Hg4 mi
12:40 PM88 °FBroken clouds.7 mph70%29.74 "Hg3 mi
12:10 PM88 °FBroken clouds.9 mph70%29.77 "Hg3 mi
11:40 AM88 °FScattered clouds.9 mph66%29.77 "Hg3 mi
11:10 AM86 °FScattered clouds.7 mph75%29.77 "Hg3 mi
10:40 AM84 °FScattered clouds.6 mph79%29.80 "Hg3 mi
10:10 AM82 °FScattered clouds.9 mph74%29.80 "Hg3 mi
8:10 AM75 °FScattered clouds.2 mph94%29.77 "Hg1 mi
7:40 AM73 °FBroken clouds.No wind94%29.77 "Hg1 mi
7:10 AM73 °FBroken clouds.No wind94%29.77 "Hg1 mi
6:40 AM73 °FBroken clouds.No wind94%29.77 "Hg1 mi
6:10 AM72 °FPartly cloudy.No wind100%29.74 "Hg1 mi
5:40 AM72 °FPassing clouds.No wind100%29.74 "Hg1 mi
5:10 AM72 °FPassing clouds.No wind100%29.74 "Hg1 mi
4:40 AM73 °FPassing clouds.No wind94%29.74 "Hg1 mi
4:10 AM73 °FPassing clouds.No wind94%29.74 "Hg1 mi
2:40 AM73 °FPassing clouds.No wind94%29.74 "Hg1 mi
2:10 AM73 °FPartly cloudy.No wind94%29.74 "Hg1 mi
1:40 AM73 °FPartly cloudy.No wind94%29.77 "Hg1 mi
1:10 AM73 °FPartly cloudy.No wind94%29.77 "Hg1 mi
12:40 AM73 °FPartly cloudy.No wind100%29.77 "Hg1 mi
12:10 AM73 °FPartly cloudy.No wind100%29.80 "Hg1 mi
11:40 PM
Mon, Aug 31
75 °FPartly cloudy.No wind94%29.80 "Hg1 mi
11:10 PM75 °FPartly cloudy.No wind94%29.80 "Hg1 mi
Weather by CustomWeather, © 2015

See weather overviewHow to use our weather pages